EA5AFP-10 Weather Reports


Display with metric or nautical units.
time (UTC)temp
F
wind
direction
speed
MPH
gust
MPH
rain 1hr
in
rain 24hr
in
rain mn
in
humidity
%
barometer
mb
20260905071830 77 292 2.0 3.0 0.00 0.00 0.00 8 1015.9
20260905071446 77 292 2.0 3.0 0.00 0.00 0.00 8 1016.0
20260905071404 77 292 2.0 3.0 0.00 0.00 0.00 8 1016.0
20260905071000 77 292 1.0 2.0 0.00 0.00 0.00 8 1015.8
20260905070614 76 270 2.0 2.0 0.00 0.00 0.00 8 1016.0
20260905070540 76 270 1.0 2.0 0.00 0.00 0.00 8 1015.8
20260905070115 75 315 2.0 3.0 0.00 0.00 0.00 8 1015.8
20260905065620 75 292 3.0 3.0 0.00 0.00 0.00 8 1015.9
20260905065504 75 292 3.0 3.0 0.00 0.00 0.00 8 1015.9
20260905065041 74 270 3.0 3.0 0.00 0.00 0.00 8 1016.0
20260905064735 73 270 3.0 4.0 0.00 0.00 0.00 8 1016.0
20260905064553 73 270 3.0 3.0 0.00 0.00 0.00 8 1016.0
20260905064122 73 270 3.0 3.0 0.00 0.00 0.00 8 1016.0
20260905063736 73 270 1.0 2.0 0.00 0.00 0.00 8 1016.2
20260905063704 73 270 1.0 2.0 0.00 0.00 0.00 8 1016.2
20260905063239 73 270 1.0 2.0 0.00 0.00 0.00 8 1016.1
20260905062744 73 270 2.0 3.0 0.00 0.00 0.00 8 1016.2
20260905062359 72 270 2.0 2.0 0.00 0.00 0.00 8 1016.1
20260905061904 72 270 3.0 3.0 0.00 0.00 0.00 9 1016.0
20260905061515 72 270 2.0 2.0 0.00 0.00 0.00 9 1016.0
20260905061430 72 270 1.0 2.0 0.00 0.00 0.00 9 1016.0
20260905061029 72 292 2.0 2.0 0.00 0.00 0.00 9 1016.0
20260905060645 71 292 2.0 3.0 0.00 0.00 0.00 9 1016.0
20260905060609 71 292 2.0 3.0 0.00 0.00 0.00 9 1016.0
20260905060144 71 270 1.0 2.0 0.00 0.00 0.00 9 1015.9
20260905055649 71 292 0.0 1.0 0.00 0.00 0.00 9 1015.9
20260905055419 71 292 0.0 1.0 0.00 0.00 0.00 9 1015.9
20260905055004 71 270 2.0 3.0 0.00 0.00 0.00 9 1015.9
20260905054508 71 270 3.0 3.0 0.00 0.00 0.00 9 1015.9
20260905054041 71 292 2.0 3.0 0.00 0.00 0.00 9 1015.9
20260905053603 71 292 3.0 3.0 0.00 0.00 0.00 9 1015.8
20260905053118 71 270 2.0 2.0 0.00 0.00 0.00 9 1015.7
20260905052654 71 292 1.0 2.0 0.00 0.00 0.00 9 1015.6
20260905052424 71 270 2.0 2.0 0.00 0.00 0.00 9 1015.7
20260905051927 71 270 3.0 4.0 0.00 0.00 0.00 8 1015.6
20260905051510 72 270 2.0 3.0 0.00 0.00 0.00 8 1015.8
20260905051025 71 270 2.0 3.0 0.00 0.00 0.00 8 1015.6
20260905050609 71 270 3.0 4.0 0.00 0.00 0.00 8 1015.7
20260905050144 72 270 4.0 6.0 0.00 0.00 0.00 8 1015.8
20260905045649 71 247 3.0 4.0 0.00 0.00 0.00 8 1015.7
20260905045428 71 247 3.0 4.0 0.00 0.00 0.00 8 1015.8
20260905045307 71 270 3.0 4.0 0.00 0.00 0.00 8 1015.7
20260905045012 72 292 3.0 4.0 0.00 0.00 0.00 8 1015.7
20260905044529 72 270 3.0 4.0 0.00 0.00 0.00 8 1015.7
20260905044409 72 270 3.0 4.0 0.00 0.00 0.00 8 1015.8
20260905044109 72 292 3.0 4.0 0.00 0.00 0.00 8 1015.7
20260905043609 71 270 3.0 4.0 0.00 0.00 0.00 9 1015.9
20260905043537 71 270 3.0 4.0 0.00 0.00 0.00 9 1015.7
20260905043119 71 270 3.0 3.0 0.00 0.00 0.00 8 1015.7
20260905042708 71 292 2.0 3.0 0.00 0.00 0.00 9 1015.7
20260905042351 71 292 3.0 3.0 0.00 0.00 0.00 9 1015.7
20260905042319 71 292 3.0 3.0 0.00 0.00 0.00 9 1015.7
20260905041849 72 270 3.0 4.0 0.00 0.00 0.00 9 1015.6
20260905041440 72 270 4.0 4.0 0.00 0.00 0.00 9 1015.5
20260905041353 72 270 3.0 4.0 0.00 0.00 0.00 9 1015.6
20260905041006 72 270 3.0 3.0 0.00 0.00 0.00 9 1015.4
20260905040523 72 270 3.0 3.0 0.00 0.00 0.00 9 1015.5
20260905040104 72 270 3.0 3.0 0.00 0.00 0.00 9 1015.4
20260905035654 71 292 3.0 3.0 0.00 0.00 0.00 9 1015.5
20260905035430 71 292 3.0 3.0 0.00 0.00 0.00 9 1015.6
20260905035000 72 270 2.0 3.0 0.00 0.00 0.00 9 1015.6
20260905034542 71 270 2.0 2.0 0.00 0.00 0.00 9 1015.5
20260905034048 71 270 2.0 2.0 0.00 0.00 0.00 9 1015.5
20260905033558 71 292 2.0 2.0 0.00 0.00 0.00 9 1015.5
20260905033110 72 270 2.0 2.0 0.00 0.00 0.00 9 1015.5
20260905032659 72 270 2.0 2.0 0.00 0.00 0.00 9 1015.4
20260905032319 72 292 2.0 3.0 0.00 0.00 0.00 9 1015.5
20260905031855 72 292 0.0 1.0 0.00 0.00 0.00 9 1015.5
20260905031419 72 292 0.0 1.0 0.00 0.00 0.00 9 1015.5
20260905031000 71 292 0.0 1.0 0.00 0.00 0.00 9 1015.4
20260905030505 72 292 1.0 2.0 0.00 0.00 0.00 9 1015.3
20260905030039 72 315 2.0 3.0 0.00 0.00 0.00 8 1015.5
20260905025625 72 315 2.0 3.0 0.00 0.00 0.00 8 1015.4
20260905025501 72 315 2.0 3.0 0.00 0.00 0.00 8 1015.4
20260905025343 73 247 0.0 1.0 0.00 0.00 0.00 8 1015.5
20260905025048 73 0 0.0 2.0 0.00 0.00 0.00 9 1015.5
20260905024552 73 0 0.0 0.0 0.00 0.00 0.00 9 1015.5
20260905024520 73 0 0.0 0.0 0.00 0.00 0.00 9 1015.6
20260905024125 72 0 0.0 1.0 0.00 0.00 0.00 9 1015.4
20260905023647 72 0 0.0 0.0 0.00 0.00 0.00 9 1015.4
20260905023629 72 0 0.0 0.0 0.00 0.00 0.00 9 1015.4
20260905023203 73 0 0.0 0.0 0.00 0.00 0.00 8 1015.4
20260905022738 73 270 0.0 1.0 0.00 0.00 0.00 8 1015.4
20260905022417 73 270 1.0 2.0 0.00 0.00 0.00 8 1015.3
20260905022217 73 292 1.0 2.0 0.00 0.00 0.00 8 1015.3
20260905021925 73 292 2.0 2.0 0.00 0.00 0.00 8 1015.3
20260905021432 73 315 1.0 2.0 0.00 0.00 0.00 8 1015.3
20260905021325 73 315 1.0 2.0 0.00 0.00 0.00 8 1015.4
20260905021000 73 315 1.0 2.0 0.00 0.00 0.00 8 1015.4
20260905020455 74 292 1.0 2.0 0.00 0.00 0.00 8 1015.3
20260905020039 74 292 3.0 4.0 0.00 0.00 0.00 8 1015.3
20260905015632 75 292 2.0 2.0 0.00 0.00 0.00 8 1015.3
20260905015630 75 292 2.0 2.0 0.00 0.00 0.00 8 1015.3
20260905015415 75 270 2.0 3.0 0.00 0.00 0.00 8 1015.3
20260905014922 75 270 3.0 4.0 0.00 0.00 0.00 8 1015.2
20260905014510 74 247 3.0 4.0 0.00 0.00 0.00 8 1015.3
20260905014050 74 270 3.0 3.0 0.00 0.00 0.00 8 1015.1
20260905013647 75 292 3.0 3.0 0.00 0.00 0.00 8 1015.2
20260905013205 75 270 2.0 3.0 0.00 0.00 0.00 8 1015.0
20260905012740 75 292 2.0 3.0 0.00 0.00 0.00 8 1015.0
20260905012434 75 292 2.0 3.0 0.00 0.00 0.00 8 1014.9
20260905012255 75 292 3.0 3.0 0.00 0.00 0.00 8 1015.0
20260905011949 74 292 3.0 3.0 0.00 0.00 0.00 8 1014.9
20260905011459 73 292 3.0 4.0 0.00 0.00 0.00 8 1015.0
20260905011350 73 292 3.0 4.0 0.00 0.00 0.00 8 1015.0
20260905011026 73 270 3.0 4.0 0.00 0.00 0.00 8 1015.1
20260905010515 74 270 3.0 3.0 0.00 0.00 0.00 9 1015.2
20260905010103 74 270 3.0 3.0 0.00 0.00 0.00 9 1015.2
20260905005654 74 270 3.0 3.0 0.00 0.00 0.00 9 1015.2
20260905005143 75 292 3.0 3.0 0.00 0.00 0.00 9 1015.3
20260905004710 74 292 3.0 3.0 0.00 0.00 0.00 9 1015.3
20260905004652 74 292 3.0 3.0 0.00 0.00 0.00 9 1015.2
20260905004222 75 292 3.0 3.0 0.00 0.00 0.00 9 1015.3
20260905003838 75 292 3.0 4.0 0.00 0.00 0.00 8 1015.3
20260905003804 75 292 3.0 4.0 0.00 0.00 0.00 8 1015.3
20260905003339 75 270 3.0 3.0 0.00 0.00 0.00 8 1015.3
20260905002844 74 292 3.0 3.0 0.00 0.00 0.00 8 1015.3
20260905002457 74 292 3.0 3.0 0.00 0.00 0.00 8 1015.3
20260905002326 74 292 3.0 3.0 0.00 0.00 0.00 8 1015.2
20260905001907 74 270 2.0 3.0 0.00 0.00 0.00 8 1015.2
20260905001547 74 270 2.0 2.0 0.00 0.00 0.00 8 1015.4
20260905001447 75 270 1.0 2.0 0.00 0.00 0.00 8 1015.4
20260905001003 75 270 1.0 2.0 0.00 0.00 0.00 8 1015.3
20260905000623 75 292 1.0 2.0 0.00 0.00 0.00 8 1015.4
20260905000546 75 292 1.0 2.0 0.00 0.00 0.00 8 1015.3
20260905000121 76 270 1.0 2.0 0.00 0.00 0.00 8 1015.4
20260904235626 76 270 2.0 2.0 0.00 0.00 0.00 8 1015.4
20260904235354 76 292 2.0 2.0 0.00 0.00 0.00 8 1015.4
20260904234904 76 270 3.0 4.0 0.00 0.00 0.00 9 1015.5
20260904234456 76 292 2.0 3.0 0.00 0.00 0.00 9 1015.6
20260904234039 76 292 2.0 3.0 0.00 0.00 0.00 9 1015.5
20260904233544 76 292 2.0 3.0 0.00 0.00 0.00 9 1015.6
20260904233117 76 292 3.0 4.0 0.00 0.00 0.00 9 1015.4
20260904232709 76 292 3.0 3.0 0.00 0.00 0.00 8 1015.5
20260904232428 76 292 3.0 3.0 0.00 0.00 0.00 8 1015.5
20260904232402 76 292 3.0 3.0 0.00 0.00 0.00 8 1015.4
20260904231946 77 292 3.0 4.0 0.00 0.00 0.00 8 1015.5
20260904231514 77 292 3.0 4.0 0.00 0.00 0.00 8 1015.4
20260904231456 77 292 3.0 4.0 0.00 0.00 0.00 8 1015.4
20260904231025 77 270 3.0 3.0 0.00 0.00 0.00 8 1015.4
20260904230642 77 292 3.0 3.0 0.00 0.00 0.00 8 1015.3
20260904230608 77 292 3.0 3.0 0.00 0.00 0.00 8 1015.3
20260904230143 77 292 2.0 3.0 0.00 0.00 0.00 8 1015.4
20260904225649 77 292 2.0 2.0 0.00 0.00 0.00 8 1015.2
20260904225513 77 292 2.0 2.0 0.00 0.00 0.00 8 1015.2
20260904225450 77 292 2.0 3.0 0.00 0.00 0.00 8 1015.3
20260904225028 78 292 3.0 4.0 0.00 0.00 0.00 8 1015.3
20260904224516 78 292 2.0 3.0 0.00 0.00 0.00 8 1015.3
20260904224108 78 270 3.0 4.0 0.00 0.00 0.00 8 1015.2
20260904223614 78 270 3.0 6.0 0.00 0.00 0.00 8 1015.2
20260904223554 78 270 3.0 4.0 0.00 0.00 0.00 8 1015.3
20260904223148 78 292 4.0 6.0 0.00 0.00 0.00 8 1015.2
20260904222737 78 292 4.0 6.0 0.00 0.00 0.00 8 1015.2
20260904222631 78 292 4.0 6.0 0.00 0.00 0.00 8 1015.2
20260904222403 77 270 3.0 6.0 0.00 0.00 0.00 8 1015.2
20260904221945 77 247 3.0 4.0 0.00 0.00 0.00 8 1015.2
20260904221656 78 315 2.0 3.0 0.00 0.00 0.00 8 1015.2
20260904221526 78 315 2.0 3.0 0.00 0.00 0.00 8 1015.3
20260904221042 78 315 2.0 3.0 0.00 0.00 0.00 8 1015.3
20260904220745 78 292 2.0 3.0 0.00 0.00 0.00 8 1015.2
20260904220656 78 292 2.0 3.0 0.00 0.00 0.00 8 1015.2
20260904220624 78 292 2.0 3.0 0.00 0.00 0.00 8 1015.2
20260904220159 78 292 3.0 4.0 0.00 0.00 0.00 8 1015.3
20260904215705 78 292 2.0 3.0 0.00 0.00 0.00 8 1015.2
20260904215524 78 315 2.0 3.0 0.00 0.00 0.00 8 1015.2
20260904215043 78 292 2.0 3.0 0.00 0.00 0.00 8 1015.1
20260904214735 78 292 3.0 3.0 0.00 0.00 0.00 8 1015.3
20260904214553 78 292 3.0 4.0 0.00 0.00 0.00 8 1015.2
20260904214122 79 315 3.0 4.0 0.00 0.00 0.00 8 1015.1
20260904213737 78 270 3.0 4.0 0.00 0.00 0.00 8 1015.2
20260904213704 78 270 3.0 4.0 0.00 0.00 0.00 8 1015.2
20260904213239 78 292 3.0 4.0 0.00 0.00 0.00 8 1015.1
20260904212745 78 292 3.0 4.0 0.00 0.00 0.00 8 1015.1
20260904212437 78 315 3.0 4.0 0.00 0.00 0.00 8 1015.2
20260904212314 78 292 3.0 4.0 0.00 0.00 0.00 8 1015.2
20260904211948 78 292 3.0 4.0 0.00 0.00 0.00 8 1015.2
20260904211429 78 292 3.0 4.0 0.00 0.00 0.00 8 1015.1
20260904211035 78 292 3.0 4.0 0.00 0.00 0.00 8 1015.2
20260904210540 79 292 3.0 4.0 0.00 0.00 0.00 8 1015.2
20260904210113 79 292 2.0 3.0 0.00 0.00 0.00 8 1015.1
20260904205648 79 292 2.0 3.0 0.00 0.00 0.00 8 1015.1
20260904205448 79 292 2.0 3.0 0.00 0.00 0.00 8 1015.0
20260904205326 79 292 2.0 3.0 0.00 0.00 0.00 8 1015.0
20260904204915 80 315 3.0 3.0 0.00 0.00 0.00 7 1015.1
20260904204507 80 292 3.0 3.0 0.00 0.00 0.00 7 1015.2
20260904204449 80 292 3.0 3.0 0.00 0.00 0.00 7 1015.0
20260904204103 80 292 3.0 4.0 0.00 0.00 0.00 7 1015.0
20260904203649 80 292 2.0 2.0 0.00 0.00 0.00 7 1015.0
20260904203615 80 292 2.0 2.0 0.00 0.00 0.00 7 1015.0
20260904203200 80 292 2.0 2.0 0.00 0.00 0.00 7 1015.0
20260904202746 80 315 3.0 3.0 0.00 0.00 0.00 7 1014.8
20260904202306 81 315 3.0 6.0 0.00 0.00 0.00 7 1014.7
20260904202253 81 315 3.0 6.0 0.00 0.00 0.00 7 1014.7
20260904201831 81 315 3.0 4.0 0.00 0.00 0.00 7 1014.8
20260904201420 81 270 4.0 4.0 0.00 0.00 0.00 7 1014.7
20260904201356 81 270 4.0 6.0 0.00 0.00 0.00 7 1014.6
20260904200950 81 292 3.0 6.0 0.00 0.00 0.00 7 1014.7
20260904200523 81 270 3.0 4.0 0.00 0.00 0.00 7 1014.6
20260904200111 81 292 2.0 3.0 0.00 0.00 0.00 7 1014.7
20260904195704 81 292 3.0 4.0 0.00 0.00 0.00 7 1014.6
20260904195701 81 292 3.0 4.0 0.00 0.00 0.00 7 1014.6
20260904195542 81 315 3.0 4.0 0.00 0.00 0.00 7 1014.7
20260904195347 81 292 3.0 4.0 0.00 0.00 0.00 7 1014.6
20260904194944 81 337 4.0 6.0 0.00 0.00 0.00 7 1014.5
20260904194647 81 315 5.0 6.0 0.00 0.00 0.00 7 1014.5
20260904194543 81 315 3.0 4.0 0.00 0.00 0.00 7 1014.4
20260904194103 81 292 5.0 6.0 0.00 0.00 0.00 7 1014.5
20260904193647 81 292 4.0 6.0 0.00 0.00 0.00 8 1014.4
20260904193615 81 315 5.0 6.0 0.00 0.00 0.00 8 1014.3
20260904193150 81 315 3.0 4.0 0.00 0.00 0.00 8 1014.2
20260904192656 82 315 2.0 3.0 0.00 0.00 0.00 8 1014.2
20260904192409 82 315 3.0 4.0 0.00 0.00 0.00 8 1014.1
20260904191951 82 315 1.0 2.0 0.00 0.00 0.00 8 1014.0
20260904191502 82 315 3.0 4.0 0.00 0.00 0.00 8 1014.1
20260904191023 82 292 3.0 4.0 0.00 0.00 0.00 8 1013.7
20260904190554 83 292 3.0 6.0 0.00 0.00 0.00 8 1013.8
20260904190121 83 292 3.0 4.0 0.00 0.00 0.00 8 1013.9
20260904185625 83 315 1.0 2.0 0.00 0.00 0.00 8 1013.7
20260904185445 83 315 1.0 2.0 0.00 0.00 0.00 8 1013.7
20260904184953 83 0 0.0 0.0 0.00 0.00 0.00 8 1013.6
20260904184524 83 292 3.0 4.0 0.00 0.00 0.00 8 1013.7
20260904184122 83 292 2.0 3.0 0.00 0.00 0.00 8 1013.6
20260904183701 82 337 1.0 2.0 0.00 0.00 0.00 8 1013.4
20260904183237 83 67 3.0 4.0 0.00 0.00 0.00 8 1013.4
20260904182742 83 67 0.0 2.0 0.00 0.00 0.00 8 1013.3
20260904182437 84 67 2.0 3.0 0.00 0.00 0.00 8 1013.4
20260904181955 84 67 1.0 2.0 0.00 0.00 0.00 8 1013.3
20260904181508 85 67 1.0 2.0 0.00 0.00 0.00 7 1013.3
20260904181035 85 67 3.0 6.0 0.00 0.00 0.00 7 1013.3
20260904180618 86 90 4.0 6.0 0.00 0.00 0.00 7 1013.1
20260904180153 86 112 6.0 10.0 0.00 0.00 0.00 7 1013.1
20260904175658 87 67 7.0 9.0 0.00 0.00 0.00 7 1013.0
20260904175532 87 67 7.0 9.0 0.00 0.00 0.00 7 1013.0
20260904175442 87 112 6.0 9.0 0.00 0.00 0.00 6 1012.9
20260904175030 87 112 6.0 9.0 0.00 0.00 0.00 6 1013.0
20260904174606 87 112 6.0 9.0 0.00 0.00 0.00 6 1012.8
20260904174133 87 112 6.0 9.0 0.00 0.00 0.00 6 1012.8
20260904173645 87 90 6.0 8.0 0.00 0.00 0.00 7 1012.9
20260904173157 88 90 6.0 8.0 0.00 0.00 0.00 7 1012.9
20260904172747 89 112 7.0 10.0 0.00 0.00 0.00 6 1013.0
20260904172450 89 112 7.0 10.0 0.00 0.00 0.00 6 1012.8
20260904172352 89 67 7.0 10.0 0.00 0.00 0.00 6 1012.9
20260904171948 90 90 6.0 8.0 0.00 0.00 0.00 5 1012.8
20260904171544 90 135 5.0 6.0 0.00 0.00 0.00 5 1012.9
20260904171504 91 90 5.0 8.0 0.00 0.00 0.00 5 1012.9
20260904171105 91 90 6.0 11.0 0.00 0.00 0.00 5 1012.9
20260904170617 91 135 4.0 6.0 0.00 0.00 0.00 5 1012.9
20260904170149 91 112 7.0 10.0 0.00 0.00 0.00 5 1012.8
20260904165658 92 90 6.0 9.0 0.00 0.00 0.00 5 1012.6
20260904165445 92 112 5.0 9.0 0.00 0.00 0.00 5 1012.6
20260904165043 92 67 5.0 6.0 0.00 0.00 0.00 5 1012.8
20260904164608 92 112 5.0 6.0 0.00 0.00 0.00 5 1012.8
20260904164547 92 67 6.0 9.0 0.00 0.00 0.00 5 1012.7
20260904164152 92 90 5.0 6.0 0.00 0.00 0.00 5 1012.7
20260904163714 92 67 4.0 8.0 0.00 0.00 0.00 5 1012.7
20260904163303 92 67 7.0 10.0 0.00 0.00 0.00 5 1012.7
20260904162853 92 67 8.0 11.0 0.00 0.00 0.00 5 1012.7
20260904162447 92 90 8.0 10.0 0.00 0.00 0.00 5 1012.7
20260904162300 92 90 7.0 11.0 0.00 0.00 0.00 5 1012.7
20260904162001 92 67 6.0 9.0 0.00 0.00 0.00 5 1012.8
20260904161541 92 67 7.0 10.0 0.00 0.00 0.00 5 1012.9
20260904161502 92 67 7.0 10.0 0.00 0.00 0.00 5 1012.8
20260904161107 92 135 9.0 12.0 0.00 0.00 0.00 5 1012.8
20260904160624 92 135 9.0 12.0 0.00 0.00 0.00 5 1012.8
20260904160150 92 112 9.0 13.0 0.00 0.00 0.00 4 1012.8
20260904155658 92 112 9.0 13.0 0.00 0.00 0.00 4 1012.6
20260904155656 92 112 9.0 13.0 0.00 0.00 0.00 4 1012.6
20260904155432 92 112 9.0 13.0 0.00 0.00 0.00 4 1012.7
20260904155306 93 67 6.0 10.0 0.00 0.00 0.00 4 1012.7
20260904154936 92 90 9.0 12.0 0.00 0.00 0.00 5 1012.8
20260904154518 93 112 6.0 11.0 0.00 0.00 0.00 5 1012.7
20260904154432 92 112 9.0 13.0 0.00 0.00 0.00 5 1012.6
20260904154034 92 90 10.0 15.0 0.00 0.00 0.00 5 1012.6
20260904153520 92 90 8.0 13.0 0.00 0.00 0.00 5 1012.6
20260904153109 92 112 8.0 13.0 0.00 0.00 0.00 5 1012.6
20260904152702 92 45 9.0 13.0 0.00 0.00 0.00 5 1012.6
20260904152700 92 45 9.0 13.0 0.00 0.00 0.00 5 1012.6
20260904152455 92 45 9.0 13.0 0.00 0.00 0.00 5 1012.5
20260904152352 92 45 9.0 13.0 0.00 0.00 0.00 5 1012.6
20260904151940 92 90 8.0 11.0 0.00 0.00 0.00 5 1012.5
20260904151540 92 112 9.0 15.0 0.00 0.00 0.00 5 1012.5
20260904151100 92 112 10.0 15.0 0.00 0.00 0.00 5 1012.6
20260904150645 91 112 9.0 15.0 0.00 0.00 0.00 5 1012.5
20260904150614 91 112 9.0 15.0 0.00 0.00 0.00 5 1012.5
20260904150145 91 90 9.0 15.0 0.00 0.00 0.00 5 1012.5
20260904145654 91 67 12.0 18.0 0.00 0.00 0.00 5 1012.7
20260904145343 92 112 12.0 15.0 0.00 0.00 0.00 5 1012.5
20260904145301 92 67 9.0 15.0 0.00 0.00 0.00 5 1012.8
20260904144909 91 90 9.0 12.0 0.00 0.00 0.00 5 1012.8
20260904144411 91 67 10.0 13.0 0.00 0.00 0.00 5 1012.6
20260904143949 91 112 9.0 18.0 0.00 0.00 0.00 5 1012.7
20260904143759 91 135 11.0 15.0 0.00 0.00 0.00 5 1012.9
20260904143519 91 135 11.0 15.0 0.00 0.00 0.00 5 1012.9
20260904143107 91 135 9.0 13.0 0.00 0.00 0.00 5 1012.7
20260904142659 91 112 12.0 15.0 0.00 0.00 0.00 5 1013.0
20260904142543 91 112 12.0 15.0 0.00 0.00 0.00 5 1013.0
20260904142244 91 67 12.0 15.0 0.00 0.00 0.00 5 1012.8
20260904142140 91 67 12.0 15.0 0.00 0.00 0.00 5 1012.8
20260904141740 91 90 10.0 15.0 0.00 0.00 0.00 5 1012.9
20260904141335 91 112 12.0 17.0 0.00 0.00 0.00 6 1012.9
20260904140932 91 90 11.0 15.0 0.00 0.00 0.00 5 1012.9
20260904140522 92 90 9.0 15.0 0.00 0.00 0.00 6 1013.0
20260904140106 92 90 8.0 13.0 0.00 0.00 0.00 5 1013.1
20260904135656 92 90 11.0 17.0 0.00 0.00 0.00 5 1013.1
20260904135529 92 90 11.0 17.0 0.00 0.00 0.00 5 1013.1
20260904135044 92 67 9.0 15.0 0.00 0.00 0.00 5 1013.1
20260904134626 92 90 10.0 15.0 0.00 0.00 0.00 5 1013.2
20260904134555 92 112 9.0 15.0 0.00 0.00 0.00 5 1013.3
20260904134123 92 112 9.0 12.0 0.00 0.00 0.00 5 1013.3
20260904133738 92 112 11.0 15.0 0.00 0.00 0.00 5 1013.5
20260904133705 92 112 11.0 15.0 0.00 0.00 0.00 5 1013.5
20260904133239 91 0 10.0 15.0 0.00 0.00 0.00 5 1013.4
20260904132746 92 112 9.0 15.0 0.00 0.00 0.00 5 1013.5
20260904132413 92 90 8.0 13.0 0.00 0.00 0.00 5 1013.7
20260904131949 92 90 9.0 15.0 0.00 0.00 0.00 6 1013.6
20260904131501 91 90 9.0 12.0 0.00 0.00 0.00 6 1013.6
20260904131026 91 90 11.0 15.0 0.00 0.00 0.00 6 1013.8
20260904130533 91 90 9.0 13.0 0.00 0.00 0.00 6 1013.8
20260904130107 91 67 11.0 15.0 0.00 0.00 0.00 6 1014.0
20260904125655 90 112 9.0 12.0 0.00 0.00 0.00 6 1014.0
20260904125434 90 135 9.0 13.0 0.00 0.00 0.00 6 1014.0
20260904125250 91 67 9.0 11.0 0.00 0.00 0.00 6 1014.0
20260904125009 91 67 9.0 13.0 0.00 0.00 0.00 6 1014.0
20260904124524 90 67 7.0 15.0 0.00 0.00 0.00 6 1014.1
20260904124355 91 135 5.0 8.0 0.00 0.00 0.00 6 1013.9
20260904124104 90 112 8.0 11.0 0.00 0.00 0.00 6 1014.0
20260904123604 90 90 9.0 13.0 0.00 0.00 0.00 6 1014.0
20260904123528 89 67 9.0 13.0 0.00 0.00 0.00 6 1014.0
20260904123114 89 90 7.0 10.0 0.00 0.00 0.00 6 1014.1
20260904122702 89 135 9.0 13.0 0.00 0.00 0.00 6 1014.1
20260904122421 89 112 9.0 12.0 0.00 0.00 0.00 6 1014.1
20260904122352 89 112 9.0 12.0 0.00 0.00 0.00 6 1014.2
20260904121933 89 112 9.0 15.0 0.00 0.00 0.00 7 1014.2
20260904121546 89 112 9.0 13.0 0.00 0.00 0.00 6 1014.3
20260904121514 89 112 9.0 13.0 0.00 0.00 0.00 6 1014.3
20260904121031 89 90 6.0 8.0 0.00 0.00 0.00 7 1014.3
20260904120651 88 67 9.0 13.0 0.00 0.00 0.00 7 1014.4
20260904120614 88 67 9.0 13.0 0.00 0.00 0.00 7 1014.4
20260904120149 89 90 6.0 10.0 0.00 0.00 0.00 7 1014.3
20260904115654 88 112 7.0 10.0 0.00 0.00 0.00 7 1014.5
20260904115503 88 90 6.0 8.0 0.00 0.00 0.00 7 1014.4
20260904115048 88 90 8.0 10.0 0.00 0.00 0.00 7 1014.6
20260904114605 88 90 6.0 8.0 0.00 0.00 0.00 7 1014.6
20260904114131 87 67 8.0 12.0 0.00 0.00 0.00 7 1014.6
20260904113643 87 112 9.0 11.0 0.00 0.00 0.00 7 1014.6
20260904113155 86 90 8.0 11.0 0.00 0.00 0.00 7 1014.6
20260904112746 86 90 9.0 12.0 0.00 0.00 0.00 7 1014.7
20260904112350 86 112 9.0 13.0 0.00 0.00 0.00 7 1014.7
20260904112257 86 90 9.0 15.0 0.00 0.00 0.00 7 1014.8
20260904111903 86 135 10.0 15.0 0.00 0.00 0.00 7 1014.8
20260904111446 86 135 10.0 13.0 0.00 0.00 0.00 7 1014.8
20260904111354 87 135 7.0 12.0 0.00 0.00 0.00 7 1015.0
20260904111009 86 90 6.0 10.0 0.00 0.00 0.00 7 1014.9
20260904110524 86 90 8.0 15.0 0.00 0.00 0.00 7 1015.0
20260904110108 86 112 9.0 12.0 0.00 0.00 0.00 7 1015.1
20260904105700 85 90 11.0 15.0 0.00 0.00 0.00 7 1015.1
20260904105658 85 90 11.0 15.0 0.00 0.00 0.00 7 1015.1
20260904105319 86 112 7.0 13.0 0.00 0.00 0.00 7 1015.1
20260904104849 86 90 8.0 11.0 0.00 0.00 0.00 7 1015.1
20260904104438 86 67 6.0 9.0 0.00 0.00 0.00 7 1015.1
20260904104011 86 90 5.0 9.0 0.00 0.00 0.00 7 1015.2
20260904103559 86 112 5.0 9.0 0.00 0.00 0.00 7 1015.2
20260904103152 85 112 9.0 12.0 0.00 0.00 0.00 7 1015.3
20260904102700 86 90 7.0 11.0 0.00 0.00 0.00 7 1015.2
20260904102239 85 67 10.0 15.0 0.00 0.00 0.00 7 1015.4
20260904101754 85 112 8.0 10.0 0.00 0.00 0.00 8 1015.3
20260904101339 85 112 10.0 15.0 0.00 0.00 0.00 7 1015.5
20260904100934 86 90 6.0 9.0 0.00 0.00 0.00 7 1015.5
20260904100526 86 112 6.0 9.0 0.00 0.00 0.00 7 1015.5
20260904100107 86 90 8.0 10.0 0.00 0.00 0.00 7 1015.4
20260904095656 86 90 6.0 10.0 0.00 0.00 0.00 7 1015.5
20260904095239 87 90 6.0 10.0 0.00 0.00 0.00 7 1015.5
20260904094745 87 112 6.0 8.0 0.00 0.00 0.00 7 1015.6
20260904094341 88 67 2.0 4.0 0.00 0.00 0.00 7 1015.6
20260904093938 88 90 3.0 4.0 0.00 0.00 0.00 6 1015.7
20260904093529 88 67 2.0 3.0 0.00 0.00 0.00 6 1015.6
20260904093113 88 90 1.0 3.0 0.00 0.00 0.00 6 1015.5
20260904092704 87 0 0.0 0.0 0.00 0.00 0.00 6 1015.6
20260904092338 87 225 0.0 1.0 0.00 0.00 0.00 6 1015.5
20260904092212 87 135 0.0 2.0 0.00 0.00 0.00 6 1015.5
20260904091850 87 0 0.0 1.0 0.00 0.00 0.00 6 1015.5
20260904091348 86 45 0.0 1.0 0.00 0.00 0.00 6 1015.6
20260904090942 87 112 0.0 1.0 0.00 0.00 0.00 6 1015.6
20260904090514 86 90 1.0 3.0 0.00 0.00 0.00 7 1015.7
20260904085654 86 67 3.0 4.0 0.00 0.00 0.00 7 1015.6
20260904085652 86 67 3.0 4.0 0.00 0.00 0.00 7 1015.6
20260904085354 85 0 0.0 0.0 0.00 0.00 0.00 7 1015.6
20260904084951 85 67 3.0 6.0 0.00 0.00 0.00 7 1015.7
20260904084531 86 90 2.0 3.0 0.00 0.00 0.00 7 1015.6
20260904084125 86 0 0.0 1.0 0.00 0.00 0.00 7 1015.6
20260904083706 85 135 0.0 1.0 0.00 0.00 0.00 7 1015.4
20260904083240 85 315 1.0 2.0 0.00 0.00 0.00 7 1015.6
20260904082746 85 0 0.0 1.0 0.00 0.00 0.00 7 1015.5
20260904082501 85 0 0.0 1.0 0.00 0.00 0.00 7 1015.5
20260904082415 85 0 0.0 1.0 0.00 0.00 0.00 7 1015.5
20260904081952 85 0 0.0 1.0 0.00 0.00 0.00 7 1015.3
20260904081536 84 90 1.0 2.0 0.00 0.00 0.00 7 1015.5
20260904081502 84 90 1.0 2.0 0.00 0.00 0.00 7 1015.5
20260904081033 84 315 0.0 1.0 0.00 0.00 0.00 7 1015.5
20260904080648 84 180 0.0 1.0 0.00 0.00 0.00 7 1015.4
20260904080615 84 180 0.0 1.0 0.00 0.00 0.00 7 1015.4
20260904080150 82 0 0.0 0.0 0.00 0.00 0.00 8 1015.4
20260904075655 81 270 0.0 2.0 0.00 0.00 0.00 8 1015.4
20260904075412 81 270 2.0 3.0 0.00 0.00 0.00 8 1015.4
20260904075324 81 270 2.0 2.0 0.00 0.00 0.00 8 1015.4
20260904074937 81 270 2.0 3.0 0.00 0.00 0.00 8 1015.4
20260904074514 82 270 2.0 2.0 0.00 0.00 0.00 8 1015.4
20260904074447 82 270 0.0 2.0 0.00 0.00 0.00 8 1015.5
20260904074048 82 0 0.0 1.0 0.00 0.00 0.00 8 1015.5
20260904073600 82 0 0.0 1.0 0.00 0.00 0.00 8 1015.4
20260904073134 81 247 0.0 1.0 0.00 0.00 0.00 8 1015.5
20260904072709 80 247 0.0 1.0 0.00 0.00 0.00 8 1015.5
20260904072316 79 0 0.0 1.0 0.00 0.00 0.00 8 1015.8
20260904072219 78 0 0.0 1.0 0.00 0.00 0.00 8 1015.8